Weather History for Clinton, BC

Change the Weather History Date:

Thursday, September 4, 2014

  Actual Average Record
Temperature  
Mean Temperature 51 °F -  
Max Temperature 66 °F 63 °F 86 °F (2003)
Min Temperature 36 °F 39 °F 32 °F (2002)
Degree Days  
Heating Degree Days 14    
Growing Degree Days 1 (Base 50)    
Moisture  
Dew Point 37 °F    
Average Humidity 63    
Maximum Humidity 93    
Minimum Humidity 24    
Precipitation  
Precipitation 0.02 in - - ()
Sea Level Pressure  
Sea Level Pressure 30.20 in    
Wind  
Wind Speed 4 mph ()    
Max Wind Speed 9 mph    
Max Gust Speed -    
Visibility 9.0 miles    
Events      
Averages and records for this station are not official NWS values.
T = Trace of Precipitation, MM = Missing Value Source: Averaged Metar Reports

Daily Weather History Graph

Daily Weather History Graph

Search for Another Location

Airport:

Trip Planner

Search our weather history database for the weather conditions in past years. The results will help you decide how hot, cold, wet, or windy it might be!

Date:

Astronomy

Sep. 04, 2014 Rise Set
Actual Time 6:24 AM PDT 7:44 PM PDT
Civil Twilight 5:49 AM PDT 8:18 PM PDT
Nautical Twilight 5:08 AM PDT 9:00 PM PDT
Astronomical Twilight 4:22 AM PDT 9:45 PM PDT
Moon 4:47 PM PDT (9/4) 12:58 AM PDT (9/4)
Length of Visible Light 14h 29m
Length of Day
13h 20m
Waxing Gibbous, 75% of the Moon is Illuminated
Sep 4
Waxing Gibbous
Sep 8
Full
Sep 15
Last Quarter
Sep 23
New
Oct 1
First Quarter

Hourly Weather History & Observations

Time (PDT) Temp. Windchill Dew Point Humidity Pressure Visibility Wind Dir Wind Speed Gust Speed Precip Events Conditions
12:00 AM 41.0 °F 37.1 °F 35.6 °F 81% 30.12 in 9.0 mi SW 5.8 mph - N/A   Unknown
1:00 AM 41.0 °F 37.1 °F 35.6 °F 81% 30.12 in 9.0 mi SW 5.8 mph - N/A   Unknown
2:00 AM 40 °F - 35 °F 78% 30.12 in 9 mi SW 4.6 mph - -  
2:00 AM 39.2 °F 37.0 °F 35.6 °F 87% 30.12 in 9.0 mi WSW 3.5 mph - N/A   Unknown
3:00 AM 39.2 °F 35.0 °F 33.8 °F 81% 30.14 in 9.0 mi SSW 5.8 mph - N/A   Unknown
5:00 AM 37 °F - 34 °F 84% 30.17 in 9 mi SW 2.3 mph - -  
5:00 AM 37.4 °F 34.9 °F 33.8 °F 87% 30.17 in 9.0 mi SW 3.5 mph - N/A   Unknown
6:00 AM 37.4 °F - 33.8 °F 87% 30.19 in 9.0 mi Calm Calm - N/A   Unknown
7:00 AM 37.4 °F - 35.6 °F 93% 30.22 in 9.0 mi NW 2.3 mph - N/A   Unknown
8:00 AM 44 °F - 39 °F 76% 30.24 in 9 mi SW 2.3 mph - -  
8:00 AM 44.6 °F - 39.2 °F 81% 30.24 in 9.0 mi SW 2.3 mph - N/A   Unknown
9:00 AM 50.0 °F - 39.2 °F 66% 30.24 in 9.0 mi SSW 3.5 mph - N/A   Unknown
11:00 AM 59 °F - 41 °F 39% 30.23 in 9 mi North 4.6 mph - -  
11:00 AM 59.0 °F - 41.0 °F 51% 30.23 in 9.0 mi North 2.3 mph - N/A   Unknown
12:00 PM 60.8 °F - 41.0 °F 48% 30.22 in 9.0 mi NNE 6.9 mph - N/A   Unknown
2:00 PM 63 °F - 39 °F 30% 30.20 in 9 mi NNW 2.3 mph - -  
2:00 PM 62.6 °F - 39.2 °F 42% 30.20 in 9.0 mi ENE 2.3 mph - N/A   Unknown
3:00 PM 64.4 °F - 37.4 °F 37% 30.19 in 9.0 mi North 9.2 mph - N/A   Unknown
5:00 PM 65 °F - 37 °F 24% 30.19 in 9 mi NNE 6.9 mph - -  
5:00 PM 66.2 °F - 37.4 °F 35% 30.19 in 9.0 mi NNE 4.6 mph - N/A   Unknown
6:00 PM 64.4 °F - 35.6 °F 34% 30.20 in 9.0 mi North 5.8 mph - N/A   Unknown
8:00 PM 50 °F - 38 °F 53% 30.23 in 9 mi NNW 4.6 mph - -  
8:00 PM 50.0 °F - 37.4 °F 62% 30.23 in 9.0 mi NNW 4.6 mph - N/A   Unknown
9:00 PM 48.2 °F - 37.4 °F 66% 30.25 in 9.0 mi North 5.8 mph - N/A   Unknown
11:00 PM 43 °F - 35 °F 65% 30.26 in 9 mi WSW 2.3 mph - -  
11:00 PM 42.8 °F - 35.6 °F 76% 30.26 in 9.0 mi WSW 2.3 mph - N/A   Unknown